Lübeck Blankensee Airport EDHL

Flugplatz Daten

Name: Lübeck Blankensee Airport

Ident: EDHL

Lat: 53,80540085

Long: 10,71920013

Platzhöhe: 53 ft

IataCode: LBC

City: Lübeck

Metar

2022/08/14 06:20
EDHL 140620Z 08004KT 060V120 CAVOK 20/17 Q1014 RMK

Taf

Gewünschte Webcam nicht vorhanden? Dann fügen Sie eine hinzu. Sie wird dann so schnell wie möglich freigeschaltet
Url: Title: